AirNav   GEt a FREE Bose Revolve Bluetooth Speaker
 
 1472 users online  

13C Lakeview Airport-Griffith Field
Lakeview, Michigan, USA

GOING TO LAKEVIEW?


FAA INFORMATION EFFECTIVE 06 DECEMBER 2018

Location

FAA Identifier: 13C
Lat/Long: 43-27-08.1000N / 085-15-52.7000W
43-27.135000N / 085-15.878333W
43.4522500 / -85.2646389
(estimated)
Elevation: 968.9 ft. / 295.3 m (surveyed)
Variation: 05W (2000)
From city: 1 mile NE of LAKEVIEW, MI
Time zone: UTC -5 (UTC -4 during Daylight Saving Time)
Zip code: 48850

Airport Operations

Airport use: Open to the public
Activation date: 12/1944
Control tower: no
ARTCC: CHICAGO CENTER
FSS: LANSING FLIGHT SERVICE STATION
NOTAMs facility: LAN (NOTAM-D service available)
Attendance: 0800-DUSK
FOR SVC AFT HRS CALL ASST MGR CELL 989-506-8874.
Wind indicator: lighted
Segmented circle: yes
Lights: ACTVT MIRL RY 10/28; PAPI & REIL RYS 10 & 28 - CTAF.
Beacon: white-green (lighted land airport)
Operates sunset to sunrise.

Airport Communications

CTAF/UNICOM: 122.8
GRAND RAPIDS APPROACH: 124.6 [0600-2300]
GRAND RAPIDS DEPARTURE: 124.6 [0600-2300]
WX AWOS-3P at RQB (19 nm NW): 125.875 (231-796-0884)
  • APCH/DEP SVC PRVDD BY CHICAGO ARTCC ON FREQS 128.5/269.6 (PULLMAN RCAG) WHEN GRAND RAPIDS APCH CTL CLSD.

Nearby radio navigation aids

VOR radial/distance  VOR name  Freq  Var
HICr112/21.0WHITE CLOUD VOR/DME117.6001W
MOPr251/25.1MOUNT PLEASANT VOR/DME110.6005W
MKGr064/37.8MUSKEGON VORTAC115.2001W

Airport Services

Fuel available: 100LL
Parking: tiedowns
Airframe service: MAJOR
Powerplant service: MAJOR
Bottled oxygen: NONE
Bulk oxygen: NONE

Runway Information

Runway 10/28

Dimensions: 3499 x 75 ft. / 1066 x 23 m
Surface: asphalt, in good condition
Weight bearing capacity: 
Single wheel: 12.0
Runway edge lights: medium intensity
RUNWAY 10  RUNWAY 28
Latitude: 43-27.128585N43-27.140355N
Longitude: 085-16.272793W085-15.482405W
Elevation: 963.0 ft.967.0 ft.
Gradient: 0.3%0.3%
Traffic pattern: leftleft
Runway heading: 094 magnetic, 089 true274 magnetic, 269 true
Markings: nonprecision, in fair conditionnonprecision, in fair condition
Visual slope indicator: 2-light PAPI on left (3.00 degrees glide path)2-light PAPI on left (3.00 degrees glide path)
Runway end identifier lights: yesyes
Touchdown point: yes, no lightsyes, no lights
Obstructions: 63 ft. trees, 1590 ft. from runway, 50 ft. right of centerline, 22:1 slope to clear75 ft. trees, 1710 ft. from runway, 20:1 slope to clear

Airport Ownership and Management from official FAA records

Ownership: Publicly-owned
Owner: VILLAGE OF LAKEVIEW
315 LINCOLN AVE. PO BOX 30
LAKEVIEW, MI 48850
Phone 989-352-6322
Manager: SHAY GALLAGHER
P.O. BOX 30, 315 E. LINCOLN
LAKEVIEW, MI 48850
Phone (989) 506-8874
ASST MGR @ ARPT 989-506-9974. CITY/ARPT MGR OFC AT CITY HALL 989-352-7306.

Airport Operational Statistics

Aircraft based on the field: 30
Single engine airplanes: 28
Multi engine airplanes: 1
Helicopters: 1
    
Aircraft operations: avg 28/day *
49% transient general aviation
49% local general aviation
2% military
* for 12-month period ending 31 December 2017

Additional Remarks

EXTENSIVE AGRICULTURAL OPNS.
DEER & BIRDS ON AND INVOF ARPT.

Instrument Procedures

NOTE: All procedures below are presented as PDF files. If you need a reader for these files, you should download the free Adobe Reader.

NOT FOR NAVIGATION. Please procure official charts for flight.
FAA instrument procedures published for use from 6 December 2018 at 0901Z to 3 January 2019 at 0900Z.

 
IAPs - Instrument Approach Procedures
RNAV (GPS) RWY 10   download (181KB)
RNAV (GPS) RWY 28   download (163KB)
VOR/DME RWY 10   download (151KB)
NOTE: Special Take-Off Minimums/Departure Procedures apply   download (122KB)

Other nearby airports with instrument procedures:

6D6 - Greenville Municipal Airport (19 nm S)
KRQB - Roben-Hood Airport (19 nm NW)
KMOP - Mount Pleasant Municipal Airport (25 nm NE)
KAMN - Gratiot Community Airport (26 nm E)
8D4 - Paul C Miller-Sparta Airport (27 nm SW)
 
Loc | Ops | Rwys | IFR | FBO | Links
Com | Nav | Svcs | Stats | Notes


 
Area around 13C (Lakeview Airport-Griffith Field)
 
Road maps at: MapQuest Bing Google
 
Aerial photo
WARNING: Photo may not be current or correct
Aerial photo of 13C (Lakeview Airport-Griffith Field)
Photo by Paul "Wally" Roode

Do you have a better or more recent aerial photo of Lakeview Airport-Griffith Field that you would like to share? If so, please send us your photo.

 
Sectional chart

 
Airport distance calculator
Flying to Lakeview Airport-Griffith Field? Find the distance to fly.

From to 13C

Sunrise and sunset
Times for 11-Dec-2018
 Local
(UTC-5)
 Zulu
(UTC)
Morning civil twilight07:3212:32
Sunrise08:0513:05
Sunset17:0422:04
Evening civil twilight17:3622:36

Current date and time
Zulu (UTC)  11-Dec-2018 19:30:11
Local (UTC-5)  11-Dec-2018 14:30:11
 
METAR
KRQB 
19nm NW 
111915Z AUTO 00000KT 5SM HZ OVC015 M01/M04 A2997 RMK AO2 T10121038
KMOP 
25nm NE 
111915Z AUTO 28005KT 10SM BKN017 OVC029 00/M05 A2997 RMK AO2 T10011054
KAMN 
27nm E 
111915Z AUTO 30009KT 10SM SCT020 OVC030 00/M05 A2999 RMK AO2 T10031055
KFFX 
32nm W 
111917Z AUTO 00000KT 10SM OVC018 M01/M04 A2999 RMK AO2 T10061043
KY70 
32nm S 
111916Z AUTO 31004KT 10SM OVC018 00/M05 A2999 RMK AO2 T10051055
KGRR 
36nm S 
111853Z 32005KT 6SM HZ OVC016 M01/M04 A2999 RMK AO2 SLP165 T10061044
TAF
KGRR 
36nm S 
111740Z 1118/1218 29010KT P6SM OVC015 FM112100 31006KT P6SM BKN025 FM120000 VRB03KT P6SM BKN025 FM121700 12012KT 2SM -SN BR OVC009
NOTAMs
Click for the latest NOTAMs
NOTAMs are issued by the DoD/FAA and will open in a separate window not controlled by AirNav.

 

 
 

FBO, Fuel Providers, and Aircraft Ground Support

  
 Business Name 
 
 Contact 
 
 Services / Description 
 
Fuel Prices
 
Comments
  
Petersen Oil Company Inc 616-506-8874
no information available

If you are affiliated with Petersen Oil Company Inc and would like to show here your services, contact info, web link, logo, and more, click here
100LL
SS $4.50 
 Updated 04-Dec-2018
 
   3 read write
SS=Self service
Update Fuel Prices
 

Would you like to see your business listed on this page?

 If your business provides an interesting product or service to pilots, flight crews, aircraft, or users of the Lakeview Airport-Griffith Field, you should consider listing it here.  To start the listing process, click on the button below
 
Add a business
 

Other Pages about Lakeview Airport-Griffith Field

Page from the Michigan Airport Directory (PDF)
 
Update a link
 
Copyright © AirNav, LLC. All rights reserved. Privacy Policy  Contact